Location: Sihaung
(22.8641°N, 94.0549°E)
Time: 02:53:13
(UTC+00:00)

Palapa 6 Rocket - Pass Details

Date: 03 March 2021
Orbit: 484 x 1216 km, 22.7° (Epoch: 13 April)

Event Time Altitude Azimuth Distance (km) Brightness Sun altitude
Rises 12:44:30 0° 267° (W) 3,698 9.1 -13.8°
Reaches altitude 10° 12:47:02 10° 267° (W) 2,842 7.9 -14.4°
Maximum altitude 12:54:15 90° 185° (S) 1,155 4.3 -16.0°
Enters shadow 12:59:24 25° 89° (E) 2,220 5.2 -17.2°
